Overview Statistics Trail Chart Weather Telemetry Raw packets
 

This is the latest recevied weather packets stored in our database for station/object ZL2ASC-13. If no packets are shown the sender has not sent any weather packets the latest 10 day(s).

<< 96 97 98 99 100 101 102 >>
Time Temp. Humidity Pressure Rain* Wind** Luminosity Snow
1788486782 16.67° C 56% 1005.8 hPa 0 mm - - -
1788486722 16.11° C 57% 1005.7 hPa 0 mm - - -
1788486662 16.11° C 55% 1005.8 hPa 0 mm - - -
1788486602 16.67° C 54% 1005.8 hPa 0 mm - - -
1788486542 16.67° C 54% 1005.5 hPa 0 mm - - -
1788486482 16.67° C 58% 1005.7 hPa 0 mm - - -
1788486422 16.11° C 55% 1005.5 hPa 0 mm - - -
1788486362 16.67° C 56% 1005.5 hPa 0 mm - - -
1788486301 16.67° C 55% 1005.5 hPa 0 mm - - -
1788486241 16.67° C 56% 1005.6 hPa 0 mm - - -
1788486181 16.67° C 55% 1005.6 hPa 0 mm - - -
1788486121 16.67° C 55% 1005.6 hPa 0 mm - - -
1788486061 16.11° C 55% 1005.5 hPa 0 mm - - -
1788486001 16.11° C 55% 1005.4 hPa 0 mm - - -
1788485942 16.11° C 56% 1005.3 hPa 0 mm - - -
1788485881 16.11° C 56% 1005.3 hPa 0 mm - - -
1788485821 16.67° C 54% 1005.4 hPa 0 mm - - -
1788485761 16.67° C 55% 1005.3 hPa 0 mm - - -
1788485701 16.67° C 55% 1005.4 hPa 0 mm - - -
1788485641 16.11° C 57% 1005.4 hPa 0 mm - - -
1788485581 16.11° C 57% 1005.6 hPa 0 mm - - -
1788485521 16.11° C 57% 1005.5 hPa 0 mm - - -
1788485461 16.11° C 55% 1005.6 hPa 0 mm - - -
1788485401 16.11° C 56% 1005.6 hPa 0 mm - - -
1788485341 16.11° C 56% 1005.7 hPa 0 mm - - -

* Rain latest hour (hover to see other rain measurements)
** Current wind speed in m/s (hover to see current wind gust speed)